星链-2373 (STARLINK-2373 )

导读 | 豆包AI

STARLINK-2373是美国SpaceX公司星链(Starlink)卫星互联网项目中的一颗低轨通信卫星,于2021年3月11日发射升空。作为星链星座组网的组成部分,它运行在近地轨道,旨在为全球偏远地区、网络基础设施薄弱区域提供低延迟、高速率的宽带互联网服务。该卫星依托星链项目规模化组网优势,助力实现全球互联网覆盖,是SpaceX构建星链低轨卫星星座过程中的一环。

Basic Information
目录编号:
47796
目录名称:
STARLINK-2373
国际标识:
2021-018K
轨道中心:
EARTH
卫星名称:
星链-2373
卫星全名:
星链-2373 (STARLINK-2373 )
卫星状态:
在轨 (已飞行1829 天)
发射日期:
2021-03-11 UTC
国别 :
美国 (US)
星等 :
--
Orbit Information
数据来源 国际轨道数据 AOE轨道数据
星历时间 2026-03-13T18:33:52+0800
1天前
查看轨道信息
2026-03-10T10:00:00+0800
4天前
查看轨道信息
半长轴 6925.354km 6925.317km
偏心率 0.0001189 0.0001333
轨道倾角 53.056° 53.054°
近地点辐角 83.560° 86.417°
升交点赤经 214.782° 229.850°
平近点角 276.553° 59.356°
近地点 546.393km 546.256km
远地点 548.041km 548.104km
周期 95.592分钟 95.591分钟
每日圈数 15.063984 15.064106
Detailed Information
固有亮度:
5
最大亮度:
2.5
卫星平台:
Starlink V1.0
覆盖范围:
全球
运营商:
太空探索技术公司
运营商所在国:
美国
制造商(研发单位):
太空探索技术公司
制造商所在国:
美国
使用方式:
暂无
Satellite Introduction
星链(Starlink)计划是由太空探索技术公司(SpaceX)提出的一个巨型低轨卫星互联网星座项目,计划在2019年至2024年间在太空搭建由约1.2万颗卫星组成的“星链”网络,其中1584颗将部署在地球上空550千米处的近地轨道,并从2020年开始工作。该卫星仍在工作。
2D Orbit Map
3D Orbit Map
Orbit Altitude Analysis Chart
Orbit Inclination Analysis Chart
Orbit Comprehensive Analysis Chart
View Comprehensive Chart